Location: ??????
(41.3747°N, 22.5491°E)
Time: 04:47:41
(UTC+00:00)

Cosmos 1500 - Pass Details

Date: 01 December 2020
Orbit: 498 x 519 km, 82.5° (Epoch: 20 January)

Event Time Altitude Azimuth Distance (km) Brightness Sun altitude
Rises 17:02:06 0° 347° (NNW) 2,636 6.8 -22.1°
Reaches altitude 10° 17:04:15 10° 344° (NNW) 1,748 5.9 -22.5°
Maximum altitude 17:08:01 57° 265° (W) 613 3.8 -23.2°
Drops below altitude 10° 17:11:46 10° 187° (S) 1,742 6.0 -23.9°
Sets 17:13:55 0° 183° (S) 2,626 6.9 -24.3°
